TimeCDT,TemperatureF,Dew PointF,Humidity,Sea Level PressureIn,VisibilityMPH,Wind Direction,Wind SpeedMPH,Gust SpeedMPH,PrecipitationIn,Events,Conditions,WindDirDegrees,DateUTC
12:53 AM,66.9,57.0,70,29.94,10.0,NNE,8.1,-,N/A,,Clear,30,2012-09-02 05:53:00
1:53 AM,66.0,55.9,70,29.94,10.0,North,8.1,-,N/A,,Clear,10,2012-09-02 06:53:00
2:53 AM,64.0,55.0,73,29.93,10.0,NNE,6.9,-,N/A,,Clear,20,2012-09-02 07:53:00
3:53 AM,63.0,55.0,75,29.93,10.0,NNE,6.9,-,N/A,,Clear,20,2012-09-02 08:53:00
4:53 AM,62.1,55.0,78,29.93,10.0,North,6.9,-,N/A,,Clear,350,2012-09-02 09:53:00
5:53 AM,61.0,55.0,81,29.91,10.0,North,6.9,-,N/A,,Clear,10,2012-09-02 10:53:00
6:39 AM,60.8,55.4,82,29.94,10.0,North,5.8,-,N/A,,Scattered Clouds,360,2012-09-02 11:39:00
6:49 AM,60.8,55.4,82,29.95,10.0,NNE,5.8,-,N/A,,Mostly Cloudy,20,2012-09-02 11:49:00
6:53 AM,61.0,55.9,83,29.94,10.0,North,5.8,-,N/A,,Mostly Cloudy,10,2012-09-02 11:53:00
7:53 AM,64.0,57.0,78,29.94,10.0,NNE,5.8,-,N/A,,Overcast,20,2012-09-02 12:53:00
8:53 AM,66.9,60.1,79,29.95,10.0,NNE,5.8,-,N/A,,Overcast,30,2012-09-02 13:53:00
9:53 AM,70.0,63.0,78,29.95,10.0,NE,5.8,-,N/A,,Overcast,40,2012-09-02 14:53:00
10:39 AM,71.6,64.4,78,29.99,10.0,NE,3.5,-,N/A,,Overcast,40,2012-09-02 15:39:00
10:53 AM,72.0,64.9,78,29.97,10.0,Calm,Calm,-,N/A,,Overcast,0,2012-09-02 15:53:00
11:53 AM,73.9,66.0,76,29.97,10.0,North,3.5,-,N/A,,Overcast,10,2012-09-02 16:53:00
12:31 PM,77.0,68.0,74,29.97,10.0,Calm,Calm,-,N/A,,Scattered Clouds,0,2012-09-02 17:31:00
12:53 PM,79.0,68.0,69,29.94,10.0,Calm,Calm,-,N/A,,Clear,0,2012-09-02 17:53:00
1:53 PM,82.9,70.0,65,29.92,10.0,NNE,3.5,-,N/A,,Clear,30,2012-09-02 18:53:00
2:53 PM,82.9,70.0,65,29.90,10.0,East,3.5,-,N/A,,Clear,90,2012-09-02 19:53:00
3:53 PM,86.0,70.0,59,29.89,10.0,Calm,Calm,-,N/A,,Clear,0,2012-09-02 20:53:00
4:53 PM,84.9,69.1,59,29.89,10.0,East,4.6,-,N/A,,Partly Cloudy,90,2012-09-02 21:53:00
5:53 PM,84.9,68.0,57,29.88,10.0,Calm,Calm,-,N/A,,Clear,0,2012-09-02 22:53:00
6:53 PM,84.0,69.1,61,29.88,10.0,Calm,Calm,-,N/A,,Clear,0,2012-09-02 23:53:00
7:53 PM,79.0,71.1,77,29.89,10.0,WSW,3.5,-,N/A,,Clear,250,2012-09-03 00:53:00
8:53 PM,80.1,68.0,67,29.90,10.0,Calm,Calm,-,0.02,,Clear,0,2012-09-03 01:53:00
9:53 PM,73.0,69.1,87,29.91,9.0,Calm,Calm,-,0.02,,Clear,0,2012-09-03 02:53:00
10:53 PM,75.9,68.0,76,29.91,10.0,Calm,Calm,-,0.01,,Clear,0,2012-09-03 03:53:00
11:53 PM,75.9,68.0,76,29.91,10.0,Calm,Calm,-,N/A,,Clear,0,2012-09-03 04:53:00